sat.trackr.live / text

‹ back to catalog

STARLINK-31319

NORAD 59457 · 2024-068C

PAYLOAD ACTIVE UNKNOWN

§ Identity

Operator
Country
US
Launch date
2024-04-10
Launch site
AFETR
Launch vehicle
Mass (kg)
RCS (m²)

Purposes: comms

External: N2YO · Heavens-Above · Gunter

§ Orbital elements

Epoch: 2026-05-25T04:33:35.665632Z

Period
94.27 min
Inclination
42.9981°
Eccentricity
0.0000573
Mean motion
15.27578564 rev/d
Perigee alt
482.7 km
Apogee alt
483.4 km
Semi-major
6,861.2 km
B*
1.9137e-4
RAAN
318.9297°
Arg perigee
288.9069°
Mean anomaly
71.1720°
Rev number
12,026

§ Raw data

STARLINK-313191 59457U 24068C   26145.18999613  .00005008  00000+0  19137-3 0  99902 59457  42.9981 318.9297 0000573 288.9069  71.1720 15.27578564120260

JSON: /api/v1/satellites/59457 · /tle

For live sub-satellite position, see the globe view (requires WebGL).

§ Visibility from observer

Set your observer location to see the next 7 days of passes ≥ 10°. The values pass through the URL so the page stays shareable.

No JS? Fill the form by hand. The geolocation button needs JavaScript.